EW6271 Weather Reports


Display with metric or nautical units.
time (UTC)temp
F
wind
direction
speed
MPH
gust
MPH
rain 1hr
in
rain 24hr
in
rain mn
in
humidity
%
barometer
mb
20260505052502 50 355 0.0 2.0 0.00 0.00 0.00 78 1007.5
20260505052004 50 355 0.0 0.0 0.00 0.00 0.00 78 1007.3
20260505051505 50 355 0.0 1.0 0.00 0.00 0.00 77 1007.3
20260505051003 50 355 0.0 1.0 0.00 0.00 0.00 77 1007.2
20260505050502 51 355 0.0 1.0 0.00 0.00 0.00 76 1007.3
20260505041505 53 5 1.0 2.0 0.00 0.00 0.00 72 1006.7
20260505041003 53 5 1.0 2.0 0.00 0.00 0.00 72 1006.6
20260505040502 54 5 0.0 2.0 0.00 0.00 0.00 71 1006.5
20260505035603 54 61 0.0 3.0 0.00 0.00 0.00 69 1006.4
20260505035001 55 355 0.0 2.0 0.00 0.00 0.00 69 1006.4
20260505034505 55 355 1.0 2.0 0.00 0.00 0.00 69 1006.3
20260505034103 56 355 0.0 2.0 0.00 0.00 0.00 68 1006.2
20260505033603 56 355 1.0 2.0 0.00 0.00 0.00 67 1006.2
20260505033105 57 355 0.0 1.0 0.00 0.00 0.00 66 1006.1
20260505032502 57 355 0.0 1.0 0.00 0.00 0.00 64 1006.0
20260505032103 58 355 0.0 1.0 0.00 0.00 0.00 63 1005.9
20260505031509 59 355 0.0 2.0 0.00 0.00 0.00 60 1005.9
20260505031004 60 355 0.0 2.0 0.00 0.00 0.00 59 1005.8
20260505030503 60 355 0.0 2.0 0.00 0.00 0.00 59 1005.8
20260505030002 61 355 0.0 2.0 0.00 0.00 0.00 56 1005.7
20260505025602 62 355 0.0 2.0 0.00 0.00 0.00 56 1005.7
20260505025006 62 355 0.0 2.0 0.00 0.00 0.00 54 1005.5
20260505024502 63 355 0.0 1.0 0.00 0.00 0.00 52 1005.5
20260505024103 64 355 0.0 1.0 0.00 0.00 0.00 51 1005.5
20260505023503 65 355 0.0 1.0 0.00 0.00 0.00 50 1005.4
20260505023105 66 355 0.0 1.0 0.00 0.00 0.00 47 1005.4
20260505022602 66 355 0.0 0.0 0.00 0.00 0.00 44 1005.4
20260505022003 67 355 0.0 1.0 0.00 0.00 0.00 42 1005.3
20260505021603 67 355 0.0 1.0 0.00 0.00 0.00 42 1005.2
20260505021002 68 360 0.0 2.0 0.00 0.00 0.00 41 1005.2
20260505020502 68 355 0.0 3.0 0.00 0.00 0.00 37 1005.1
20260505020002 69 11 1.0 3.0 0.00 0.00 0.00 37 1005.1
20260505015602 69 32 1.0 3.0 0.00 0.00 0.00 36 1005.0
20260505015008 69 348 1.0 5.0 0.00 0.00 0.00 36 1004.9
20260505014504 70 48 0.0 3.0 0.00 0.00 0.00 34 1004.9
20260505014006 70 9 1.0 5.0 0.00 0.00 0.00 33 1004.9
20260505013503 70 9 2.0 5.0 0.00 0.00 0.00 34 1004.9
20260505013103 71 19 1.0 5.0 0.00 0.00 0.00 34 1005.0
20260505012502 71 17 1.0 6.0 0.00 0.00 0.00 35 1004.9
20260505012003 71 14 2.0 6.0 0.00 0.00 0.00 34 1005.0
20260505011602 71 5 1.0 6.0 0.00 0.00 0.00 34 1005.0
20260505011008 72 40 3.0 9.0 0.00 0.00 0.00 35 1005.0
20260505010501 72 12 4.0 9.0 0.00 0.00 0.00 36 1004.9
20260505010118 72 346 2.0 12.0 0.00 0.00 0.00 36 1005.0
20260505005602 73 40 2.0 12.0 0.00 0.00 0.00 35 1005.0
20260505005002 73 355 2.0 9.0 0.00 0.00 0.00 34 1005.0
20260505004602 74 355 3.0 16.0 0.00 0.00 0.00 35 1005.0
20260505004002 74 22 3.0 16.0 0.00 0.00 0.00 33 1004.9
20260505003603 74 302 3.0 10.0 0.00 0.00 0.00 34 1005.0
20260505002601 74 360 2.0 9.0 0.00 0.00 0.00 33 1005.0
20260505002007 75 5 1.0 10.0 0.00 0.00 0.00 35 1005.0
20260505001502 75 49 1.0 10.0 0.00 0.00 0.00 34 1005.1
20260505001002 75 43 2.0 7.0 0.00 0.00 0.00 33 1005.1
20260505000602 75 67 2.0 7.0 0.00 0.00 0.00 34 1005.0
20260505000004 75 275 1.0 6.0 0.00 0.00 0.00 34 1005.0
20260504235604 75 138 2.0 9.0 0.00 0.00 0.00 32 1005.1
20260504235003 75 5 1.0 9.0 0.00 0.00 0.00 32 1005.1
20260504234604 75 311 1.0 6.0 0.00 0.00 0.00 34 1005.0
20260504234004 75 54 1.0 5.0 0.00 0.00 0.00 36 1005.0
20260504233502 75 48 3.0 5.0 0.00 0.00 0.00 36 1005.0
20260504233002 75 11 2.0 8.0 0.00 0.00 0.00 35 1005.0
20260504232603 75 101 2.0 8.0 0.00 0.00 0.00 37 1005.0
20260504232005 75 48 3.0 6.0 0.00 0.00 0.00 34 1005.0
20260504231502 75 111 2.0 5.0 0.00 0.00 0.00 35 1005.1
20260504231102 75 57 1.0 8.0 0.00 0.00 0.00 35 1005.1
20260504230502 75 117 3.0 8.0 0.00 0.00 0.00 33 1005.0
20260504230003 76 97 3.0 9.0 0.00 0.00 0.00 36 1005.1
20260504225508 76 246 2.0 9.0 0.00 0.00 0.00 33 1005.2
20260504225104 76 128 3.0 8.0 0.00 0.00 0.00 37 1005.3
20260504224507 75 79 2.0 8.0 0.00 0.00 0.00 36 1005.2
20260504224103 75 58 3.0 8.0 0.00 0.00 0.00 36 1005.4
20260504223506 76 118 2.0 8.0 0.00 0.00 0.00 36 1005.3
20260504223105 75 60 2.0 8.0 0.00 0.00 0.00 38 1005.5
20260504222604 75 73 3.0 9.0 0.00 0.00 0.00 36 1005.5
20260504222001 75 85 2.0 6.0 0.00 0.00 0.00 38 1005.5
20260504221507 75 69 3.0 8.0 0.00 0.00 0.00 37 1005.4
20260504221103 75 142 3.0 8.0 0.00 0.00 0.00 35 1005.4
20260504220603 74 123 3.0 8.0 0.00 0.00 0.00 38 1005.5
20260504220002 75 44 4.0 8.0 0.00 0.00 0.00 38 1005.6
20260504215507 75 98 3.0 7.0 0.00 0.00 0.00 41 1005.6
20260504215004 75 136 3.0 7.0 0.00 0.00 0.00 40 1005.7
20260504214502 75 81 3.0 7.0 0.00 0.00 0.00 41 1005.8
20260504214102 75 219 3.0 7.0 0.00 0.00 0.00 39 1005.7
20260504213507 75 76 3.0 8.0 0.00 0.00 0.00 40 1005.8
20260504213003 74 130 3.0 9.0 0.00 0.00 0.00 41 1005.9
20260504212503 75 228 4.0 9.0 0.00 0.00 0.00 41 1005.9
20260504212003 74 94 3.0 7.0 0.00 0.00 0.00 40 1005.9
20260504211502 74 183 2.0 9.0 0.00 0.00 0.00 40 1006.0
20260504211002 73 14 3.0 9.0 0.00 0.00 0.00 41 1006.1
20260504210508 73 34 3.0 6.0 0.00 0.00 0.00 38 1006.1
20260504210003 74 61 3.0 9.0 0.00 0.00 0.00 38 1006.2
20260504205502 74 167 2.0 9.0 0.00 0.00 0.00 41 1006.2
20260504205104 74 192 5.0 8.0 0.00 0.00 0.00 40 1006.2
20260504204606 74 27 2.0 7.0 0.00 0.00 0.00 40 1006.3
20260504204101 74 240 3.0 10.0 0.00 0.00 0.00 40 1006.3
20260504203506 73 31 3.0 10.0 0.00 0.00 0.00 40 1006.3
20260504203102 74 188 4.0 8.0 0.00 0.00 0.00 38 1006.3
20260504202503 73 215 2.0 8.0 0.00 0.00 0.00 41 1006.4
20260504202004 73 181 5.0 8.0 0.00 0.00 0.00 39 1006.4
20260504201505 73 129 3.0 8.0 0.00 0.00 0.00 41 1006.5
20260504201008 73 127 2.0 10.0 0.00 0.00 0.00 41 1006.5
20260504200507 73 190 2.0 6.0 0.00 0.00 0.00 40 1006.5
20260504200003 72 257 2.0 5.0 0.00 0.00 0.00 41 1006.5
20260504195603 72 142 2.0 6.0 0.00 0.00 0.00 40 1006.5
20260504195103 73 158 3.0 6.0 0.00 0.00 0.00 39 1006.5
20260504194502 72 42 2.0 5.0 0.00 0.00 0.00 40 1006.5
20260504194003 72 28 1.0 8.0 0.00 0.00 0.00 42 1006.5
20260504193503 71 22 4.0 8.0 0.00 0.00 0.00 37 1006.5
20260504193004 73 78 3.0 5.0 0.00 0.00 0.00 43 1006.7
20260504192603 71 153 0.0 5.0 0.00 0.00 0.00 42 1006.7
20260504192003 72 17 2.0 6.0 0.00 0.00 0.00 45 1006.7
20260504191502 72 177 3.0 6.0 0.00 0.00 0.00 42 1006.8
20260504191003 72 170 2.0 6.0 0.00 0.00 0.00 44 1006.7
20260504190601 70 209 1.0 6.0 0.00 0.00 0.00 45 1006.8
20260504190006 70 271 1.0 6.0 0.00 0.00 0.00 43 1006.9
20260504185507 68 113 3.0 6.0 0.00 0.00 0.00 51 1006.8
20260504185003 68 190 1.0 6.0 0.00 0.00 0.00 47 1006.9
20260504184502 67 83 1.0 4.0 0.00 0.00 0.00 46 1006.9
20260504184003 67 52 2.0 4.0 0.00 0.00 0.00 50 1007.0
20260504183602 68 344 2.0 4.0 0.00 0.00 0.00 48 1007.0
20260504183002 67 43 1.0 4.0 0.00 0.00 0.00 50 1007.1
20260504182503 66 83 2.0 7.0 0.00 0.00 0.00 49 1007.1
20260504182103 66 145 3.0 7.0 0.00 0.00 0.00 50 1007.1
20260504181602 66 110 2.0 4.0 0.00 0.00 0.00 49 1007.2
20260504181007 66 90 0.0 4.0 0.00 0.00 0.00 49 1007.2
20260504180507 65 119 1.0 4.0 0.00 0.00 0.00 50 1007.2
20260504180004 65 49 1.0 4.0 0.00 0.00 0.00 51 1007.3
20260504175502 65 116 1.0 6.0 0.00 0.00 0.00 49 1007.3
20260504175002 65 105 3.0 6.0 0.00 0.00 0.00 52 1007.3
20260504174503 65 78 1.0 6.0 0.00 0.00 0.00 48 1007.4
20260504174104 65 196 2.0 6.0 0.00 0.00 0.00 47 1007.4
20260504173503 67 175 2.0 4.0 0.00 0.00 0.00 46 1007.4
20260504173002 65 188 2.0 4.0 0.00 0.00 0.00 49 1007.4
20260504172502 67 117 1.0 4.0 0.00 0.00 0.00 45 1007.4
20260504172002 66 196 2.0 6.0 0.00 0.00 0.00 45 1007.4
20260504171502 65 175 2.0 6.0 0.00 0.00 0.00 48 1007.3
20260504171003 64 186 3.0 6.0 0.00 0.00 0.00 46 1007.3
20260504170603 64 154 1.0 7.0 0.00 0.00 0.00 47 1007.3
20260504170104 65 148 3.0 6.0 0.00 0.00 0.00 45 1007.3
20260504151101 60 205 0.0 0.0 0.00 0.00 0.00 58 1007.7
20260504150603 60 117 0.0 0.0 0.00 0.00 0.00 58 1007.8
20260504150112 59 190 0.0 0.0 0.00 0.00 0.00 55 1007.8
20260504141105 47 53 0.0 0.0 0.00 0.00 0.00 83 1007.9
20260504140502 46 27 0.0 0.0 0.00 0.00 0.00 83 1007.9
20260504130506 38 21 0.0 0.0 0.00 0.00 0.00 91 1007.5
20260504130104 38 21 0.0 0.0 0.00 0.00 0.00 91 1007.5
20260504110504 39 355 0.0 0.0 0.00 0.00 0.00 89 1007.8
20260504100507 41 5 0.0 2.0 0.00 0.00 0.00 87 1007.7
20260504100117 41 5 0.0 2.0 0.00 0.00 0.00 87 1007.8
20260504081503 42 355 1.0 2.0 0.00 0.00 0.00 85 1007.8
20260504081004 42 355 1.0 3.0 0.00 0.00 0.00 85 1007.8
20260504080507 42 355 1.0 3.0 0.00 0.00 0.00 86 1007.8
20260504080116 43 355 1.0 3.0 0.00 0.00 0.00 85 1007.7